Voltar ao catálogo

SL-8 R/B

AtivoLEO
NORAD 5615·ROCKET BODY·🇷🇺 Russia

Lançado Nov 20, 1971 de Plesetsk Cosmodrome

Loading…

Próximas Passagens (próximas 24 horas)

TLE

AtualizadoSource: Space-Track

Época: Sep 14, 2026, 02:57 UTC

1 05615U 71099B   26257.12353053  .00000220  00000-0  61558-3 0  9999
2 05615  74.0340 149.8278 0022425   2.6793 171.8631 13.17684316636404

Acompanhe SL-8 R/B em tempo real com AllMySat

Download on the App Store